Location: Les Salelles
(44.4192°N, 4.1044°E)
Time: 19:11:39
(UTC+00:00)

H-2A R/B - Pass Details

Date: 20 January 2021
Orbit: 734 x 836 km, 98.2° (Epoch: 03 March)

Event Time Altitude Azimuth Distance (km) Brightness Sun altitude
Rises 18:09:21 0° 155° (SSE) 3,164 5.1 -16.4°
Reaches altitude 10° 18:11:37 10° 152° (SSE) 2,254 4.3 -16.7°
Maximum altitude 18:16:30 63° 72° (ENE) 846 1.9 -17.6°
Drops below altitude 10° 18:21:33 10° 353° (N) 2,325 4.5 -18.5°
Sets 18:23:55 0° 350° (N) 3,273 5.3 -18.9°
